Simultaneous Nadir Overpasses (SNOs) Predictions

Prediction of SNOs between FY3D and TERRA Satellite Orbit:

Table of predicted SNOs for the next 14.0 days since TLE Epoch: 3/29/2025
Index Date (FY3D) Time (FY3D) Lat,Lon (FY3D) SZA (FY3D ) Date (TERRA) Time (TERRA) Lat,Lon (TERRA) SZA (TERRA ) Distance(km) Time Diff (sec)
1 03/31/2025 11:45:01 77.30, 4.04 72.88 03/31/2025 11:45:41 77.32, 3.98 72.89 2.10 40
2 03/31/2025 12:35:44 -77.26, 171.55 107.18 03/31/2025 12:35:01 -77.29, 171.55 107.16 3.09 43
3 04/02/2025 22:06:33 -77.33, 28.62 108.04 04/02/2025 22:07:43 -77.33, 28.48 108.04 3.44 70
4 04/02/2025 22:57:18 77.30,-163.94 71.92 04/02/2025 22:57:03 77.31,-163.95 71.93 0.93 15
5 04/05/2025 09:18:50 -77.33,-139.42 108.98 04/05/2025 09:19:04 -77.32,-139.43 108.99 0.97 14
6 04/05/2025 10:09:35 77.30, 28.03 70.99 04/05/2025 10:08:24 77.29, 28.12 70.97 2.56 71
7 04/07/2025 19:40:23 77.35,-114.81 70.13 04/07/2025 19:41:04 77.33,-114.94 70.11 3.53 41
8 04/07/2025 20:31:06 -77.31, 52.69 109.93 04/07/2025 20:30:24 -77.32, 52.66 109.92 1.26 42
9 04/10/2025 06:01:54 -77.36, -90.20 110.77 04/10/2025 06:03:03 -77.36, -90.37 110.77 4.13 69
10 04/10/2025 06:52:39 77.33, 77.24 69.20 04/10/2025 06:52:23 77.32, 77.14 69.18 2.79 16



Historial Predications of SNOs between FY3D and TERRA
